DELTA 1 DEB, 4841

Orbit data source: Space-Track

DELTA 1 DEB, 4841 is space debris originally from a launch on Thu, 04 Jul 1968 UTC launched from the Air Force Western Test Range (AFWTR). Debris objects in space refer to the collection of defunct objects orbiting the Earth. Examples of debris include non-operational satellites, rocket bodies, and fragments generated from explosions, collisions, or faulty payload assembly.

Loading next visibility...
Identifier
4841, 1968-055D
Orbit
Active
Country
Flag of USUS
Related business
Manufacturer
Unknown
Mission
Spacecraft
Bus & Motor
Unknown
Mass
Unknown
Launch date (UTC)
1968-07-04 (58 years ago)
Launch vehicle
Unknown
Launch site
Air Force Western Test Range (AFWTR)
Object type
Payload
Rocket body
Debris
Shape & HBR
Unknown shape, 0.1 m
Radar Cross Section
Medium (>0.1 m² and <1 m²)

Expand to show TLE details & history
Last TLE update: 22 hours ago

TLE from 22 hours ago
0 DELTA 1 DEB
1 04841U 68055D   26177.78152745  .00000127  00000-0  23217-3 0  9991
2 04841 120.7158 262.3609 2696278 220.1034 314.7511  9.29270949136321
Epoch: 2026-06-26T18:45Z
TLE epoch observation values (Epoch: 2026-06-26T18:45:23.971Z)
Latitude
27.70434°
Longitude
-95.80533°
Altitude
1,830.134 km
Speed
7.448 km/s
True Right ascension
06h 41m 47s
True Declination
27° 34' 53"
Sunlit
Object was in daylight at epoch
Visualization orbit readout
Latitude
Unknown
Longitude
Unknown
Altitude
Unknown
Speed
Unknown
Apparent Right ascension
Unknown
Apparent Declination
Unknown
Sunlit
N/A
Visualization observer readout
Local Sidereal Time
04:26:38
Azimuth
Unknown
Elevation
Unknown
Doppler factor
Unknown
Orbital elements
Apogee altitude
5,754.582 km
Perigee altitude
601.389 km
Semi-major axis
9,556.123 km
Eccentricity
0.26963
Inclination
120.7158°
RAAN
262.3609°
Arg. of periapsis
220.1034°
True anomaly
287.22098°
Mean anomaly
314.7511°
Eccentric anomaly
301.59204°
Mean motion
2.32338 °/min
Orbital period
154.95 mins
BSTAR
0.00023217
Loading maneuver chart data...
Computing Atmospheric mass density...
Loading historical data...
Loading historical data...
Loading historical data...
Loading historical data...
Loading historical data...
Loading historical data...
Loading historical data...

Documentation

Showing up to 5 results
|